This is the latest recevied weather packets stored in our database for station/object DB0LHR-6. If no packets are shown the sender has not sent any weather packets the latest 10 day(s).
| Time | Temp. | Humidity | Pressure | Rain* | Wind** | Luminosity | Snow |
|---|---|---|---|---|---|---|---|
| 1777669275 | 15° C | 34% | 1022 hPa | 0 mm | - | - | - |
| 1777668375 | 15.56° C | 33% | 1022 hPa | 0 mm | - | - | - |
| 1777667475 | 16.11° C | 32% | 1022 hPa | 0 mm | - | - | - |
| 1777666575 | 16.67° C | 29% | 1022 hPa | 0 mm | - | - | - |
| 1777665675 | 16.67° C | 28% | 1022 hPa | 0 mm | - | - | - |
| 1777664775 | 17.22° C | 28% | 1022 hPa | 0 mm | - | - | - |
| 1777663875 | 17.78° C | 26% | 1022 hPa | 0 mm | - | - | - |
| 1777662975 | 18.33° C | 25% | 1022 hPa | 0 mm | - | - | - |
| 1777662075 | 18.89° C | 22% | 1022 hPa | 0 mm | - | - | - |
| 1777661175 | 20° C | 15% | 1021 hPa | 0 mm | - | - | - |
| 1777660275 | 20° C | 12% | 1021 hPa | 0 mm | - | - | - |
| 1777659375 | 20.56° C | 14% | 1021 hPa | 0 mm | - | - | - |
| 1777658475 | 20.56° C | 12% | 1021 hPa | 0 mm | - | - | - |
| 1777657576 | 21.11° C | 12% | 1021 hPa | 0 mm | - | - | - |
| 1777656675 | 21.67° C | 11% | 1021 hPa | 0 mm | - | - | - |
| 1777655775 | 21.67° C | 11% | 1021 hPa | 0 mm | - | - | - |
| 1777654875 | 21.67° C | 11% | 1021 hPa | 0 mm | - | - | - |
| 1777653975 | 22.22° C | 11% | 1021 hPa | 0 mm | - | - | - |
| 1777653075 | 22.22° C | 13% | 1021 hPa | 0 mm | - | - | - |
| 1777652175 | 22.22° C | 13% | 1021 hPa | 0 mm | - | - | - |
| 1777651275 | 22.78° C | 11% | 1021 hPa | 0 mm | - | - | - |
| 1777650375 | 22.78° C | 11% | 1021 hPa | 0 mm | - | - | - |
| 1777649475 | 23.33° C | 13% | 1022 hPa | 0 mm | - | - | - |
| 1777647675 | 23.89° C | 13% | 1022 hPa | 0 mm | - | - | - |
| 1777646775 | 23.89° C | 13% | 1022 hPa | 0 mm | - | - | - |
* Rain latest 24 hours (hover to see other rain measurements)
** Current wind speed in m/s (hover to see current wind gust speed)